Regional Weather Roundup
Issued by NWS

Home | Current Version | Previous Version | Graphics & Text | Print | Product List | Glossary Off
Versions: 1 2 3 4 5 6 7 8 9 10 11 12 13 14 15 16 17 18 19 20 21 22 23 24 25 26 27 28 29 30 31 32 33 34 35 36 37 38 39 40 41 42 43 44 45 46 47 48 49 50

000
ASUS43 KDMX 292007
RWRIA

WEATHER ROUNDUP FOR IOWA
NATIONAL WEATHER SERVICE DES MOINES IA
300 PM CDT SAT AUG 29 2015

NOTE: "FAIR" INDICATES FEW OR NO CLOUDS BELOW 12,000 FEET WITH NO
SIGNIFICANT WEATHER AND/OR OBSTRUCTIONS TO VISIBILITY.

* - THESE STATIONS ARE NOT NWS STATIONS...THUS NOT UNDER NWS
QUALITY CONTROL.  THEY ALSO DO NOT REPORT WEATHER SUCH
AS PRECIPITATION OR FOG.

IAZ001>003-012>014-020>022-031>034-043>046-292100-
   NORTHWEST IOWA

CITY           SKY/WX    TMP DP  RH WIND       PRES   REMARKS
CARROLL *      CLOUDY    64  63  94 NE5       30.07S
CHEROKEE *     PTSUNNY   68  64  88 W5        30.07S
DENISON *      CLOUDY    68  63  83 CALM      30.05F
LE MARS *        N/A     68  63  83 CALM      30.07F
ORANGE CITY *  MOSUNNY   68  63  83 CALM      30.07S
SHELDON *      MOSUNNY   70  63  78 CALM      30.05F
SIOUX CITY     SUNNY     71  62  73 SE8       30.06F
SPENCER        MOSUNNY   71  62  73 S6        30.06F
STORM LAKE *   CLOUDY    66  63  88 CALM      30.08S
$$

IAZ055>058-069>071-079>083-090>094-292100-
   SOUTHWEST IOWA

CITY           SKY/WX    TMP DP  RH WIND       PRES   REMARKS
ATLANTIC *     CLOUDY    68  63  83 NE5       30.06S
AUDUBON *      CLOUDY    66  61  82 N6        30.08S
CLARINDA *     CLOUDY    70  64  83 CALM      30.06F
COUNCIL BLFS *   N/A     70  63  78 CALM      30.07S
CRESTON *      CLOUDY    70  64  83 N5        30.06S
HARLAN  *      CLOUDY    68 -38   1 N8        30.09F
LAMONI         PTSUNNY   77  67  71 N9        30.02S
RED OAK *      CLOUDY    70  64  83 N5        30.06S
SHENANDOAH *   CLOUDY    68  63  83 NW5       30.06F
$$

IAZ047>049-059>061-072>074-084-292100-
   CENTRAL IOWA

CITY           SKY/WX    TMP DP  RH WIND       PRES   REMARKS
AMES           CLOUDY    71  64  78 N5        30.04S
ANKENY *       CLOUDY    70  66  88 N6        30.03S
CHARITON *     CLOUDY    70  66  88 N5        30.03S
DES MOINES     CLOUDY    73  64  73 NW6       30.03S
GRINNELL*      CLOUDY    72  66  83 N5        30.03S
KNOXVILLE *    CLOUDY    70  64  83 N5        30.02S
MARSHALLTOWN   CLOUDY    69  63  81 N6        30.03S
PELLA *        CLOUDY    73  68  83 N3        30.03S
PERRY *        CLOUDY    68  64  88 CALM      30.06S
$$

IAZ004>006-015-016-023>025-035-036-292100-
   NORTH CENTRAL IOWA

CITY           SKY/WX    TMP DP  RH WIND       PRES   REMARKS
ALGONA *       CLOUDY    66  61  82 CALM      30.07F
CLARION *      CLOUDY    70  63  78 CALM      30.06S
ESTHERVILLE    MOSUNNY   68  62  81 SE7       30.06S
FORT DODGE *   CLOUDY    66  61  82 NW3       30.07F
MASON CITY     PTSUNNY   73  63  70 CALM      30.06F
FOREST CITY *  CLOUDY    70  63  78 CALM      30.06S
IOWA FALLS *   CLOUDY    70  63  78 CALM      30.06S
$$

IAZ007>011-017>019-026>030-037>042-050>054-066-292100-
   NORTHEAST IOWA

CITY           SKY/WX    TMP DP  RH WIND       PRES   REMARKS
CEDAR RAPIDS   CLOUDY    74  68  81 CALM      30.00S
CHARLES CITY * MOSUNNY   73  64  73 E7        30.04F
CLINTON *      CLOUDY    72  66  83 NE7       30.03S
DECORAH *      PTSUNNY   70  63  78 VRB6G12   30.04S
DUBUQUE        CLOUDY    72  65  78 N8        30.03S
MONTICELLO *   CLOUDY    73  66  78 CALM      30.01S
OELWEIN *        N/A     70  64  83 NE8       30.04S
WATERLOO       CLOUDY    73  64  73 NE7       30.02S
$$

IAZ064-065-067-068-078-292100-
   EAST CENTRAL IOWA

CITY           SKY/WX    TMP DP  RH WIND       PRES   REMARKS
DAVENPORT      CLOUDY    73  67  81 VRB5      30.00S
IOWA CITY      CLOUDY    75  68  78 NE6       30.01S
MT. PLEASANT * CLOUDY    81  64  57 CALM      29.99F HX  82
MUSCATINE *    CLOUDY    75  68  78 CALM      30.00S
QUAD CITIES    CLOUDY    76  66  71 CALM      29.99S
$$

IAZ062-063-075>077-085>089-095>099-292100-
   SOUTHEAST IOWA

CITY           SKY/WX    TMP DP  RH WIND       PRES   REMARKS
BURLINGTON     CLOUDY    76  70  82 S3        29.99S
FAIRFIELD *    PTSUNNY   75  68  78 N6        30.00S
FORT MADISON * CLOUDY    75  70  83 CALM      30.00S
KEOKUK *       CLOUDY    77  68  73 CALM      29.98F
OSKALOOSA *    CLOUDY    72  66  83 NE3       30.02S
CENTERVILLE *  MOSUNNY   73  68  83 NW7       30.03S
OTTUMWA        CLOUDY    73  68  84 N8        30.00S
WASHINGTON *     N/A    N/A N/A N/A MISG        N/A
$$

ABBREVIATIONS USED IN REMARKS
   TC - TEMPERATURES IN CELSIUS
  WCI - WIND CHILL INDEX
   HX - HEAT INDEX
  VSB - VISIBILITY
$$



USA.gov is the U.S. government's official web portal to all federal, state and local government web resources and services.